Location: Monrovia
(34.7865°N, 86.7139°W)
Time: 20:49:48
(UTC+00:00)

Cosmos 1709 Rocket - Pass Details

Date: 14 July 2020
Orbit: 948 x 1001 km, 82.9° (Epoch: 08 August)

Event Time Altitude Azimuth Distance (km) Brightness Sun altitude
Rises 01:24:58 0° 166° (SSE) 3,675 6.6 -5.1°
Reaches altitude 10° 01:27:34 10° 160° (SSE) 2,738 5.9 -5.5°
Maximum altitude 01:33:29 45° 90° (E) 1,332 4.4 -6.6°
Drops below altitude 10° 01:39:29 10° 20° (NNE) 2,775 6.6 -7.6°
Sets 01:42:08 0° 14° (NNE) 3,731 7.3 -8.1°
